Flag for Canada Weather past 2 weeks in Montreal, Quebec, Canada

Now
68 °F

Passing clouds.


Feels Like: 68 °F
Forecast: 65 / 73 °F
Wind: 5 mph from Northeast

Location: Montreal - Pierre Elliot Trudeau International Aiport

Current Time: Aug 21, 2014 at 6:58:00 AM

Latest Report: Aug 21, 2014 at 6:00 AM


Visibility: 15 mi

Pressure: 30.01 "Hg

Humidity: 78%

Dew point: 61 °F

Location of MontrealLocation

Historic Weather in Montreal — Graph

°F

Montreal temperature yesterday

Maximum temperature yesterday: 81 °F (at 3:00 PM)
Minimum temperature yesterday: 55 °F (at 6:00 AM)
Average temperature yesterday: 70 °F

Past Weeks' High & Low Weather Summary

 TemperatureHumidityPressure
High86 °F (Aug 11, 3:00 PM)100% (Aug 13, 6:00 PM)30.14 "Hg (Aug 13, 6:00 PM)
Low52 °F (Aug 19, 5:00 AM)34% (Aug 6, 1:00 PM)29.66 "Hg (Aug 14, 12:00 AM)
Average67 °F70%29.92 "Hg
* Reported Aug 6 5:00 AM — Aug 21 5:00 AM, Montreal, Weather by CustomWeather, © 2014

Note: Actual official high and low records may vary slightly from our data, if they occured in-between our weather recording intervals... More about our weather records

Advertising

Montreal weather history for previous 24 hours

 ConditionsComfort  
Time TempWeatherWind HumidityBarometerVisibility
5:00 AM
Aug 21
68 °FOvercast.No wind73%30.00 "Hg15 mi
4:00 AM68 °FPassing clouds.6 mph73%29.99 "Hg15 mi
3:00 AM70 °FPassing clouds.7 mph69%29.99 "Hg15 mi
2:00 AM70 °FPassing clouds.5 mph69%29.99 "Hg15 mi
1:00 AM72 °FPartly cloudy.6 mph61%29.99 "Hg15 mi
12:00 AM70 °FPartly cloudy.5 mph69%29.99 "Hg15 mi
11:00 PM
Aug 20
70 °FPassing clouds.12 mph69%29.98 "Hg15 mi
10:00 PM72 °FPassing clouds.10 mph65%29.99 "Hg15 mi
9:00 PM73 °FPassing clouds.9 mph61%29.98 "Hg15 mi
8:00 PM77 °FOvercast.12 mph51%29.98 "Hg15 mi
7:00 PM79 °FMore clouds than sun.9 mph48%29.96 "Hg15 mi
6:00 PM81 °FCloudy.9 mph48%29.97 "Hg30 mi
5:00 PM79 °FBroken clouds.10 mph51%29.96 "Hg30 mi
4:00 PM81 °FBroken clouds.8 mph45%29.96 "Hg30 mi
3:00 PM81 °FPartly sunny.14 mph48%29.96 "Hg30 mi
2:00 PM79 °FPartly sunny.12 mph51%29.97 "Hg30 mi
1:00 PM77 °FPartly sunny.10 mph51%29.98 "Hg30 mi
12:00 PM75 °FPartly sunny.12 mph50%29.99 "Hg30 mi
11:00 AM73 °FPartly sunny.9 mph57%29.99 "Hg30 mi
10:00 AM72 °FPartly sunny.10 mph61%29.98 "Hg30 mi
9:00 AM66 °FPartly sunny.7 mph73%29.98 "Hg30 mi
8:00 AM64 °FPartly sunny.3 mph78%29.98 "Hg30 mi
7:00 AM59 °FPassing clouds.6 mph88%29.96 "Hg30 mi
6:00 AM55 °FPassing clouds.5 mph94%29.96 "Hg30 mi
Weather by CustomWeather, © 2014

See weather overviewHow to use our weather pages